Regional Weather Roundup
Issued by NWS

Home | Current Version | Previous Version | Graphics & Text | Print | Product List | Glossary On
Versions: 1 2 3 4 5 6 7 8 9 10 11 12 13 14 15 16 17 18 19 20 21 22 23 24 25 26 27 28 29 30 31 32 33 34 35 36 37 38 39 40 41 42 43 44 45 46 47 48 49 50
000
ASUS45 KCYS 271210
RWRWY

WYOMING REGIONAL WEATHER ROUNDUP
NATIONAL WEATHER SERVICE CHEYENNE WY
600 AM MDT TUE SEP 27 2016

NOTE:  "FAIR" INDICATES FEW OR NO CLOUDS BELOW 12,000 FEET
WITH NO SIGNIFICANT WEATHER AND/OR OBSTRUCTIONS TO VISIBILITY.

WYZ001-271300-
YELLOWSTONE NATIONAL PARK

CITY           SKY/WX    TMP DP  RH WIND       PRES   REMARKS
LK YELLOWSTONE   N/A     29  29 100 NW3       30.43S
6HR MIN TEMP:  29; 6HR MAX TEMP:  35;

W YELLOWSTONE  NOT AVBL

$$
WYZ002>013-054>058-071-098>099-271300-
NORTHERN WYOMING

CITY           SKY/WX    TMP DP  RH WIND       PRES   REMARKS
JACKSON        FAIR      36  36 100 CALM      30.38R
CODY           FAIR      47  42  83 SE3       30.21S
GREYBULL       FAIR      46  44  93 SE5       30.18S
6HR MIN TEMP:  45; 6HR MAX TEMP:  53;

WORLAND        FAIR      42  41  96 S3        30.18S
6HR MIN TEMP:  41; 6HR MAX TEMP:  51;

SHERIDAN       FAIR      43  36  76 W3        30.11S
6HR MIN TEMP:  42; 6HR MAX TEMP:  49;

BUFFALO        FAIR      57  31  37 W10       30.17S
6HR MIN TEMP:  52; 6HR MAX TEMP:  61;

GILLETTE       FAIR      54  41  61 CALM      30.13S
6HR MIN TEMP:  51; 6HR MAX TEMP:  55;

HULETT         FAIR      46  41  81 SW8       30.14S
NEWCASTLE      FAIR      45  39  81 N7        30.16F

$$
WYZ014>020-022>026-101>103-271300-
CENTRAL WYOMING

CITY           SKY/WX    TMP DP  RH WIND       PRES   REMARKS
BIG PINEY      FAIR      36  33  89 CALM      30.38S
6HR MIN TEMP:  35; 6HR MAX TEMP:  43;

PINEDALE       FAIR      32  32 100 NW7       30.39S WCI  26
DUBOIS         FAIR      43  36  75 W15       30.34F
LANDER         FAIR      45  36  70 CALM      30.25S
6HR MIN TEMP:  42; 6HR MAX TEMP:  53;

RIVERTON       FAIR      46  42  86 W8        30.26S
6HR MIN TEMP:  45; 6HR MAX TEMP:  50;

CASPER         FAIR      45  41  86 W14       30.23F
6HR MIN TEMP:  43; 6HR MAX TEMP:  48;

DOUGLAS        FAIR      36  34  92 CALM      30.22S
6HR MIN TEMP:  35; 6HR MAX TEMP:  46;


$$
WYZ021-027>030-104>119-271300-
SOUTHERN WYOMING

CITY           SKY/WX    TMP DP  RH WIND       PRES   REMARKS
EVANSTON       FAIR      44  33  65 SE6       30.36S
6HR MIN TEMP:  44; 6HR MAX TEMP:  56;

FORT BRIDGER   FAIR      44  36  73 W8        30.38S
ROCK SPRINGS   FAIR      43  39  86 S3        30.35S
6HR MIN TEMP:  41; 6HR MAX TEMP:  52;

DIXON          FAIR      36  33  88 CALM      30.39R
RAWLINS        FAIR      35  32  88 CALM      30.35S
6HR MIN TEMP:  32; 6HR MAX TEMP:  41;

SARATOGA       FAIR      34  34 100 CALM      30.38S
LARAMIE        FAIR      36  32  85 S7        30.35S WCI  30
6HR MIN TEMP:  34; 6HR MAX TEMP:  43;

CHEYENNE       FAIR      42  35  76 W8        30.27S
6HR MIN TEMP:  42; 6HR MAX TEMP:  47;

TORRINGTON     FAIR      40  39  97 NW3       30.17S
6HR MIN TEMP:  38; 6HR MAX TEMP:  50;

PINE BLUFFS    FAIR      36  34  93 MISG      30.24F

$$



USA.gov is the U.S. government's official web portal to all federal, state and local government web resources and services.